Regional Weather Roundup
Issued by NWS Pendleton, OR

Home | Current Version | Previous Version | Text Only | Print | Product List | Glossary On
Versions: 1 2 3 4 5 6 7 8 9 10 11 12 13 14 15 16 17 18 19 20 21 22 23 24 25 26 27 28 29 30 31 32 33 34 35 36 37 38 39 40 41 42 43 44 45 46 47 48 49 50
000
ASUS46 KPDT 260625
RWRPDT
PENDLETON REGIONAL WEATHER ROUNDUP
NATIONAL WEATHER SERVICE PENDLETON OREGON
1100 PM PDT SAT APR 25 2015

NOTE: FAIR INDICATES FEW OR NO CLOUDS BELOW 12,000 FEET WITH NO
SIGNIFICANT WEATHER AND/OR OBSTRUCTIONS TO VISIBILITY.

# INDICATES UNOFFICIAL STATION AND DATA

WAZ520-260710-
EAST SLOPES OF WASHINGTON CASCADES

CITY            SKY/WX      TMP DP  RH  WIND    PRES   REMARKS
#BULLFROG 2SW   N/A         34  32  92  W2      27.62R
#BUMPING DAM    N/A         33  N/A N/A W7      N/A
#CLE ELUM HS    N/A         36  29  75  CALM    29.98R
#CLE ELUM LAKE  N/A         36  28  72  NW1     30.04R
#CLIFFDEL 2NW   N/A         35  31  85  NW3     N/A
#GLENWOOD       N/A         33  28  82  CALM    30.03R
#MANASTASH CYN  N/A         32  23  69  CALM    29.97R
#NELSON         N/A         34  32  92  CALM    30.07R
#NELSON 3SW     N/A         32  30  92  CALM    30.28R
#NILE           N/A         35  30  82  CALM    29.30R
#RONALD 2NW     N/A         36  24  61  CALM    29.90R
#SNOWDEN        N/A         37  19  48  CALM    N/A
#TEANAWAY 4NE   N/A         34  30  85  NW2     N/A
#TROUT LAKE 1NE N/A         39  32  76  SW7     30.04S
$$

WAZ521-260710-
SIMCOE HIGHLANDS

CITY            SKY/WX      TMP DP  RH  WIND    PRES   REMARKS
#BICKLETON HS   N/A         39  18  42  N7      N/A
#CENTERVILLE 4W N/A         41  29  62  CALM    29.76R
#CENTERVILLE 1SWN/A         39  28  64  W6      30.01R
#GOLDENDALE     N/A         43  28  55  W5      N/A
#GOLDENDALE 1NE N/A         41  18  39  N3      N/A
#GOLDENDALE 5WNWN/A         40  29  64  SW3     30.01R
#GOODNOE HILLS  N/A         44  28  53  W12     N/A    WCI 38
#LYLE 6NE       N/A         44  33  65  SW2     30.01R
$$

WAZ026-260710-
KITTITAS VALLEY

CITY            SKY/WX      TMP DP  RH  WIND    PRES   REMARKS
#ELLENSBURG CWU N/A         41  32  70  N8      29.96S
#ELLENSBURG 3NE N/A         39  31  73  N7      30.00R
#ELLENSBURG 1E  N/A         41  30  65  CALM    N/A
#KITTITAS 4N    N/A         39  30  70  N8      28.30R
#KITTITAS 3S    N/A         36  30  79  CALM    30.01R
#THORP 6N       N/A         39  32  76  NW14G29 30.05R WCI 31
$$

WAZ027-260710-
YAKIMA VALLEY

CITY            SKY/WX      TMP DP  RH  WIND    PRES   REMARKS
SUNNYSIDE AP    CLEAR       44  27  51  W5      30.02R
#DONALD 2NE     N/A         46  20  35  CALM    28.87R
#GRANDVIEW      N/A         48  27  44  CALM    30.04R
#MABTON         N/A         43  33  67  SW1     30.02R
#NACHES 2SW     N/A         43  32  65  W9      29.98S
#OUTLOOK DOT    N/A         N/A N/A N/A N6      N/A
#SELAH 8E       N/A         36  23  59  W3      N/A
#TERRACE HTS    N/A         45  29  53  N5      29.99R
#WAPATO 4NE     N/A         46  20  35  CALM    28.87R
#WEST VALLEY    N/A         44  30  58  CALM    30.01R
#W YAKIMA       N/A         45  30  55  NW2     30.02R
#WHITE SWAN 5E  N/A         36  29  75  S1      30.03R
$$

WAZ028-260710-
LOWER COLUMBIA BASIN...WASHINGTON

CITY            SKY/WX      TMP DP  RH  WIND    PRES   REMARKS
PROSSER AWOS    N/A         43  32  65  SW8     30.05R
RICHLAND AWOS   CLEAR       46  28  49  W7      30.01R
#BASIN CITY 5SW N/A         43  30  60  W2      30.00R
#BENTON CITY    N/A         49  27  42  W7      29.92R
#CONNELL 5N     N/A         38  30  73  W1      29.99R
#CONNELL 5NW    N/A         41  33  73  W5      29.96R
#ELTOPIA        N/A         45  33  63  W3      29.97
#ELTOPIA 6NW    N/A         43  31  62  W7      28.96R
#KAHLOTUS       N/A         44  31  60  W10     29.98R
#KENNEWICK      N/A         34  32  92  W2      27.62R
#KENNEWICK 3S   N/A         45  31  58  CALM    30.01R
#PATERSON       N/A         47  31  53  W3      30.01R
#PROSSER        N/A         48  27  44  W7      30.02R
#SAGEMOOR 2W    N/A         45  32  60  CALM    29.84R
#TOUCHET 2S     N/A         41  35  79  CALM    30.00R
#WEST PASCO     N/A         51  28  41  NW2     30.01R
$$

WAZ029-260710-
FOOTHILLS OF THE BLUES...WASHINGTON

CITY            SKY/WX      TMP DP  RH  WIND    PRES   REMARKS
WALLA WALLA AP  PTCLDY      48  32  54  E10     29.99R
6HR MIN TEMP:   48; 6HR MAX TEMP:   60; 6HR PCP:  TRACE;

#DAYTON SCHOOL  N/A         46  28  49  E2      30.01R
#LOWDEN 2SE     N/A         46  35  65  CALM    29.97R
#PLEASANT VIEW 1N/A         44  28  53  S3      30.02R
#PRESCOTT       N/A         45  37  73  CALM    29.97R
#SUDBURY        N/A         45  N/A N/A CALM    N/A
#WHITMAN COLLEGEN/A         49  34  56  E3      30.04R
#WAITSBURG 5S   N/A         41  35  79  E6      30.09R
#WAITSBURG 8N   N/A         42  13  30  CALM    29.85R
#WALLA WALLA 5E N/A         44  36  73  E2      N/A
#WHITMAN MISSIONN/A         45  35  68  CALM    30.01R
$$

WAZ030-260710-
BLUE MOUNTAINS...WASHINGTON

CITY            SKY/WX      TMP DP  RH  WIND    PRES   REMARKS
#DIXIE 5SE      N/A         39  28  64  E14     29.90F WCI 31
$$

ORZ009-041-WAZ024-260710-
COLUMBIA RIVER GORGE

CITY            SKY/WX      TMP DP  RH  WIND    PRES   REMARKS
HOOD RIVER AP   CLEAR       48  34  58  CALM    30.05R
#ARLINGTON AIRPON/A         47  29  49  NW3     29.99S
#ARLINGTON HS   N/A         47  31  53  CALM    29.94R
#CELILO DOT     N/A         51  30  44  SW6     N/A
#MOSIER 1S      N/A         44  26  49  NW3     30.03R
#MURDOCK        N/A         50  39  66  NW1     30.06R
#RUFUS DOT      N/A         52  29  41  N9      N/A

$$

ORZ510-260710-
NORTH CENTRAL OREGON

CITY            SKY/WX      TMP DP  RH  WIND    PRES   REMARKS
#CHENOWITH 1W   N/A         43  32  65  W18     N/A    WCI 35
#COW CYN RST AREN/A         40  38  92  NW6     N/A
#DUFUR 9E       N/A         41  30  65  W1      30.10R
#GRASS VALLEY 1SN/A         41  29  62  NW13    30.06S WCI 34
#KENT DOT       N/A         37  20  50  NW2     N/A
#MAUPIN SCHOOL  N/A         46  33  60  CALM    30.06R
#MORO SCHOOL    N/A         43  34  70  W6      30.03R
#SHANIKO 5WSW   N/A         37  21  52  NW5     N/A
#SHANIKO 4NW    N/A         37  25  61  W5      30.01R
#TYGH VALLEY 2NEN/A         44  29  55  NW3     30.04R
#WAPANITIA AIRPON/A         41  32  70  W1      30.05S
#WASCO DOT      N/A         40  28  62  CALM    N/A
#WASCO AIRPORT  N/A         43  30  60  W8      N/A
#WASCO 5NE      N/A         41  30  65  N2      30.03R
$$

ORZ511-260710-
CENTRAL OREGON

CITY            SKY/WX      TMP DP  RH  WIND    PRES   REMARKS
BEND AIRPORT    MOCLDY      39  32  76  W3      30.03R
MADRAS AIRPORT  CLEAR       34  27  75  N8      30.05R
PRINEVILLE AP   CLOUDY      37  30  75  W8      30.03R
#BEND 1SW       N/A         34  30  85  NE1     N/A
#BEND-AWBREY    N/A         36  31  82  CALM    30.08R
#BEND-KIM LN    N/A         38  32  79  CALM    30.00R
#CROOKED RVR RANN/A         39  31  73  CALM    30.05R
#CULVER         N/A         37  28  70  CALM    30.00R
#LAKE BILLY CHINN/A         39  15  37  S1      30.14R
#POWELL BUTTE 3EN/A         38  29  70  SW1     N/A
#POWELL BUTTE   N/A         39  29  67  W2      29.65R
#PRINEVILLE 3N  N/A         37  28  70  CALM    30.03R
#WARM SPRINGS   N/A         44  30  58  CALM    30.01R

$$


ORZ509-260710-
EAST SLOPES OF OREGON CASCADES

CITY            SKY/WX      TMP DP  RH  WIND    PRES   REMARKS
#BLUE BOX PASS  N/A         34  -15 11  CALM    N/A
#CAMP SHERMAN   N/A         33  29  85  CALM    30.08R
#LA PINE 4NW    N/A         31  25  78  CALM    30.11R
#SISTERS AIRPOR N/A         37  33  85  CALM    30.17S
#SISTERS ODOT   N/A         38  N/A N/A CALM    N/A
#SISTERS 1NW    N/A         37  30  75  N7      N/A
#SISTERS 3N     N/A         33  24  69  CALM    30.07R
#SUNRIVER       N/A         33  27  78  CALM    29.95R
#TUMALO 3W      N/A         36  29  75  W5      29.96R
#WANOGA BUTTE D N/A         28  25  88  S1      N/A

$$

ORZ044-260710-
LOWER COLUMBIA BASIN...OREGON

CITY            SKY/WX      TMP DP  RH  WIND    PRES   REMARKS
#BOARDMAN 8SW   N/A         48  34  58  N2      30.02R
#IONE SCHOOL    N/A         42  28  57  CALM    29.99R
#IRRIGON 4NW    N/A         49  30  48  S1      N/A
#UMATILLA SCHOOLN/A         45  35  68  CALM    30.05R
#UMATILLA       N/A         48  30  49  SW3     29.94R
$$

ORZ507-260710-
NORTHERN FOOTHILLS OF THE BLUES

CITY            SKY/WX      TMP DP  RH  WIND    PRES   REMARKS
#ADAMS 3WNW     N/A         41  34  76  CALM    30.03R
#ATHENA         N/A         44  32  62  CALM    30.04R
#CAYUSE         N/A         45  34  65  E5      30.01R
#HELIX SCHOOL   N/A         42  31  65  CALM    30.02R
#HELIX 3N       N/A         40  30  67  N9      29.97R
#HOLDMAN 6E     N/A         41  30  65  CALM    29.83R
#M-F FERNDALE   N/A         44  32  62  CALM    29.98S
#M-F GROVE ELEM N/A         43  30  60  CALM    29.98R
#M-FREEWATER 5SEN/A         44  32  62  CALM    29.99R
#PENDLETON DNTN N/A         50  26  39  CALM    30.02R
#PDT AQUATIC CTRN/A         48  28  46  N2      30.01S
#PENDLETON 5NE  N/A         42  35  76  CALM    29.98R
#PDT SUNRIDGE   N/A         46  31  56  CALM    30.02R
#PENDLETON 7NW  N/A         43  31  62  CALM    30.00R
#PILOT ROCK     N/A         42  30  62  SE7     30.03R
#TUTUILLA       N/A         41  32  70  E1      30.02R
#UMAPINE 2E     N/A         41  34  76  CALM    29.98R
#WESTON SCHOOL  N/A         45  30  55  CALM    29.99R

$$

ORZ508-260710-
SOUTHERN FOOTHILLS OF THE BLUES

CITY            SKY/WX      TMP DP  RH  WIND    PRES   REMARKS
LEXINGTON       MOCLDY      43  28  55  E8      30.04R
#AJAX           N/A         45  22  40  SW5     29.96R
#CONDON SCHOOL  N/A         40  27  59  CALM    29.97R
#CONDON 5W      N/A         37  24  59  NW9     29.97R
#FOSSIL SCHOOL  N/A         37  25  61  CALM    29.99R
#HEPPNER EOC    N/A         40  27  59  E1      29.97R
#HEPPNER 4NE    N/A         38  27  64  CALM    30.04R
#LEXINGTON 2SE  N/A         39  27  62  S6      30.00R
#MIKKALO        N/A         42  26  53  NW2     30.02R
#RUGGS 5NE      N/A         37  23  56  W2      30.14S
#RUGGS 2SW      N/A         39  27  62  W7      30.06R

$$

ORZ502-503-260710-
BLUE MOUNTAINS

CITY            SKY/WX      TMP DP  RH  WIND    PRES   REMARKS
MEACHAM         LGT SNOW    34  31  89  CALM    29.98S FOG
#BATTLE MTN DOT N/A         32  30  92  W14     N/A    WCI 22
#HEPPNER 15SE   N/A         35  28  75  CALM    29.90R
#LADD CYN SMT   N/A         37  25  61  W14     N/A    WCI 28
#LADD CREEK ODOTN/A         39  12  32  W8      N/A
#LONG CREEK HS  N/A         33  31  92  CALM    29.96R
#PIKES PEAK     N/A         38  28  67  E7      27.99S
#TOLLGATE       N/A         30  26  85  SW3     29.88R
#TROY SCHOOL    N/A         39  35  85  CALM    29.87R
#UKIAH          N/A         30  26  85  CALM    30.09R
#WESTON 4E      N/A         38  30  73  E3      29.97R
$$

ORZ505-260710-
JOHN DAY BASIN

CITY            SKY/WX      TMP DP  RH  WIND    PRES   REMARKS
JOHN DAY        PTCLDY      36  29  75  SW3     30.01R
#JOHN DAY KJDY  N/A         40  35  82  CALM    30.08R
#DAYVILLE SCHOOLN/A         39  30  70  CALM    29.98R
#MITCHELL       N/A         39  29  67  E1      30.16R
#MONUMENT HS    N/A         39  31  73  SE1     30.02R
#MT. VERNON 5SE N/A         33  27  78  CALM    29.96R
#WINLOCK        N/A         34  23  64  CALM    30.09R
$$

ORZ506-260710-
OCHOCO AND JOHN DAY HIGHLANDS

CITY            SKY/WX      TMP DP  RH  WIND    PRES   REMARKS
#BUCK CREEK DOT N/A         38  38  100 NW5     N/A
#HORSE RIDGE DO N/A         37  29  72  NW8     N/A
#KEYES SMT DOT  N/A         34  22  61  NW2     N/A
#PAULINA SCHOOL N/A         39  33  79  CALM    29.96R
#PINE MTN OBS   N/A         28  26  92  CALM    N/A
#PRAIRIE CITY   N/A         27  25  92  CALM    30.19R
#SENECA         N/A         32  N/A N/A CALM    N/A
#SENECA 9NW     N/A         31  27  85  CALM    30.05R
$$

ORZ049-260710-
GRANDE RONDE VALLEY

CITY            SKY/WX      TMP DP  RH  WIND    PRES   REMARKS
LA GRANDE       PTCLDY      39  25  57  NW10    29.99R
#COVE           N/A         36  32  85  W3      29.99R
#COVE SCHOOL    N/A         40  31  70  W1      29.98R
#ELGIN 3N       N/A         33  23  66  CALM    29.97R
#ELGIN 1E       N/A         36  28  72  CALM    N/A
#IMBLER SCHOOL  N/A         38  30  73  CALM    29.95R
#ISLAND CITY 4N N/A         44  38  79  CALM    30.07R
#LADD CYN DOT   N/A         41  29  62  W14     N/A    WCI 33
#LA GRANDE ELEM N/A         41  29  62  W17     30.02R WCI 33
#UNION 1S       N/A         38  31  76  CALM    29.94R
$$

ORZ050-260710-
WALLOWA COUNTY

CITY            SKY/WX      TMP DP  RH  WIND    PRES   REMARKS
JOSEPH AIRPORT  MOCLDY      32  30  92  CALM    29.96R
#ENTERPRISE HS  N/A         36  32  85  CALM    29.98R
#IMNAHA SCHOOL  N/A         39  36  89  S1      30.00R
#IMNAHA 10S     N/A         33  31  92  CALM    29.97R
#JOSEPH 3N      N/A         32  29  89  CALM    29.98R
#JOSEPH 3W      N/A         32  27  82  CALM    29.80R
#LOSTINE        N/A         35  30  82  CALM    29.81R
#MT HOWARD 8000 N/A         21  19  92  NW5     29.85S
#PROMISE 1S     N/A         32  29  89  CALM    30.09F
#SHEEP RDG 7000 N/A         24  21  88  CALM    30.09R
#WALLOWA SCHOOL N/A         36  30  79  CALM    30.97R



$$



USA.gov is the U.S. government's official web portal to all federal, state and local government web resources and services.